[[{"header":{"parameterUnit":"m.s-1","parameterCategory":1,"la1":30.2991,"la2":30.254,"lo1":-89.0895,"lo2":-89.0444,"dy":0.0017,"dx":0.0017,"nx":28,"ny":28,"refTime":"2024-04-24T09:00:00:Z","depth":0,"parameterNumber":2,"parameterNumberName":"U-component_of_WINDS"},"data":[0,0,0,0,0,0,0,0,0,0,0,0,0,0,0,0,0,0,0,0,0,0,0,0,0,0,0,0,0,0,0,0,0,0,0,0,0,0,0,0,0,0,0,0,0,0,0,0,0,0,0,0,0,0,0,0,0,0,1.6763,1.6764,0,1.6863,1.6864,1.6865,1.6885,1.6884,1.6883,1.6882,1.6984,1.6987,1.699,0,0,0,0,0,0,0,0,0,0,0,0,0,1.6588,1.6591,1.6763,1.6764,1.6766,1.6863,1.6864,1.6865,1.6885,1.6884,1.6883,1.6882,1.6983,1.6987,1.6991,0,0,0,0,0,0,0,0,0,0,0,0,0,1.6673,1.6592,1.6763,1.6787,1.679,1.6862,1.6864,1.6866,1.6885,1.6884,1.6883,1.6882,1.6981,1.6986,1.6991,1.7046,0,0,1.7007,1.7009,0,0,0,0,0,0,0,0,1.6668,1.668,1.6782,1.6785,1.6789,1.686,1.6839,1.6926,1.6885,1.6849,1.6882,1.6881,1.6944,1.6952,1.6973,1.7051,1.7055,1.7007,1.7011,1.7013,1.7014,0,0,0,0,0,0,0,1.6662,1.6675,1.6803,1.6784,1.6788,1.6792,1.6803,1.6856,1.6902,1.6852,1.6854,1.6865,1.6945,1.6968,1.6975,1.7057,1.7007,1.7012,1.7015,1.7017,1.7183,1.7185,0,0,0,0,0,0,1.6652,1.667,1.6799,1.6806,1.6725,1.6796,1.6808,1.6839,1.6901,1.6909,1.6866,1.6866,1.696,1.6969,1.6979,1.7046,1.7013,1.7018,1.7021,1.7182,1.7184,1.7185,0,0,0,0,0,0,1.6648,1.6664,1.6795,1.6738,1.6756,1.6801,1.6834,1.6841,1.6864,1.6912,1.692,1.6881,1.6959,1.6972,1.7029,1.705,1.702,1.7025,1.718,1.7182,1.7184,1.7182,0,0,0,0,0,0,1.6643,1.6662,1.6684,1.6739,1.6758,1.6844,1.6836,1.6844,1.6873,1.6873,1.6928,1.6936,1.6959,1.7021,1.7034,1.7057,1.7029,1.7179,1.7181,1.7184,1.718,1.7183,1.7186,0,0,0,0,0,1.6637,1.668,1.6685,1.6701,1.6787,1.6845,1.6857,1.6883,1.6874,1.6896,1.6927,1.6934,1.7046,1.7027,1.7042,1.7066,1.7177,1.7181,1.7183,1.7179,1.7183,1.7186,0,0,0,0,0,0,1.6626,1.6687,1.6694,1.6756,1.6795,1.6849,1.6877,1.6887,1.6929,1.6928,1.6958,1.6971,1.7026,1.7052,1.703,1.7122,1.7111,1.7117,1.7102,1.7107,1.711,1.7102,1.7033,0,0,0,0,0,1.6631,1.6674,1.6725,1.6774,1.6794,1.6832,1.6858,1.6875,1.6917,1.6934,1.6969,1.7009,1.7053,1.7081,1.7125,1.7184,1.7196,1.7208,1.7211,1.7213,1.7218,1.725,1.7255,1.7195,1.7195,1.7195,0,0,1.6641,1.668,1.6705,1.6773,1.6806,1.6848,1.6846,1.6892,1.6924,1.6941,1.6997,1.7024,1.707,1.7128,1.7156,1.7152,1.7237,1.7217,1.7219,1.7222,1.7253,1.7259,1.7264,1.7197,1.7197,1.7196,0,0,1.6682,1.6716,1.676,1.6793,1.6842,1.6867,1.6877,1.6929,1.6948,1.7004,1.7018,1.7056,1.7131,1.7164,1.719,1.7241,1.7249,1.7255,1.727,1.7301,1.7306,1.731,1.7327,1.7333,1.7259,1.7259,1.7259,0,1.6688,1.6754,1.6782,1.6827,1.6855,1.6873,1.6917,1.6947,1.7008,1.7027,1.7022,1.7116,1.7149,1.7214,1.7226,1.7248,1.726,1.7248,1.7303,1.7307,1.7312,1.7328,1.7335,1.7259,1.7259,1.7259,1.7259,0,1.6759,1.6804,1.6834,1.6892,1.6924,1.6968,1.7002,1.7031,1.7044,1.707,1.7126,1.7166,1.7217,1.7234,1.7248,1.7301,1.7297,1.7297,1.7287,1.7317,1.7333,1.734,1.726,1.726,1.726,1.726,0,0,1.6796,1.6868,1.6878,1.6904,1.6959,1.6994,1.7038,1.7088,1.7112,1.7153,1.719,1.7253,1.7254,1.7283,1.7301,1.7328,1.7364,1.7325,1.7326,1.733,1.7423,1.7422,1.7429,1.737,1.7371,1.7372,1.7419,0,1.6842,1.6923,1.6948,1.7015,1.7056,1.7073,1.7111,1.7149,1.7173,1.7211,1.7238,1.7282,1.7279,1.7297,1.7325,1.7354,1.7383,1.7351,1.7404,1.7406,1.7391,1.7438,1.7437,1.7479,1.7426,1.7427,1.7427,0,1.6907,1.6949,1.7019,1.7068,1.7086,1.712,1.7167,1.7204,1.7246,1.7262,1.7294,1.731,1.7356,1.7343,1.7407,1.7384,1.7408,1.7425,1.7427,1.7433,1.7418,1.7443,1.7493,1.7499,1.7438,1.7437,1.7436,0,1.6925,1.6999,1.705,1.7072,1.713,1.7154,1.7179,1.722,1.7248,1.7289,1.7307,1.7353,1.7378,1.7412,1.7439,1.7428,1.75,1.749,1.7513,1.7512,1.7527,1.7526,1.758,1.7544,1.7543,1.7543,1.7543,0,1.6973,1.7016,1.7059,1.7091,1.7138,1.7167,1.7213,1.7239,1.7275,1.7311,1.7329,1.7362,1.7396,1.7434,1.7455,1.7503,1.7515,1.7528,1.7533,1.7526,1.7524,1.7541,1.7539,1.7545,1.7545,1.7544,1.7544,0,1.7001,1.7032,1.7089,1.7139,1.7153,1.7186,1.7228,1.7259,1.7284,1.7329,1.7342,1.738,1.7426,1.7456,1.7514,1.7528,1.7581,1.7586,1.7566,1.7568,1.759,1.7587,1.7656,1.7666,1.7624,1.7624,1.7624,0,1.703,1.7063,1.7116,1.7141,1.7167,1.7208,1.7236,1.7265,1.7293,1.7343,1.7368,1.7414,1.7453,1.7524,1.7557,1.7601,1.7607,1.7628,1.7614,1.7605,1.7606,1.7603,1.7606,1.763,1.763,1.7631,1.7631,0,1.7076,1.709,1.713,1.7175,1.7208,1.7245,1.7282,1.7302,1.7337,1.7368,1.7415,1.7444,1.7503,1.7549,1.7596,1.7621,1.7632,1.7635,1.7643,1.7636,1.7622,1.7629,1.7571,1.7633,1.7633,1.7633,1.7633,1.7633,1.7105,1.7134,1.7176,1.722,1.725,1.7284,1.7315,1.7344,1.7383,1.7433,1.7447,1.7495,1.7536,1.76,1.7626,1.7663,1.7661,1.7672,1.7675,1.7677,1.7676,1.7617,1.7672,1.7672,1.7672,1.7672,1.7672,0,1.7151,1.7179,1.7219,1.727,1.7304,1.7311,1.7352,1.7379,1.7421,1.7458,1.7495,1.7548,1.7592,1.7628,1.7673,1.7696,1.7702,1.7707,1.7705,1.771,1.7676,1.7665,1.7701,1.7701,1.7701,1.7701,1.7701,1.7701,1.7179,1.7229,1.7247,1.7311,1.7339,1.7386,1.7408,1.7439,1.7468,1.7526,1.7563,1.7586,1.7622,1.767,1.771,1.7719,1.7735,1.7738,1.7749,1.7716,1.7713,1.771,1.7699,1.7742,1.7742,1.7779,1.7779,1.778]},{"header":{"parameterUnit":"m.s-1","parameterCategory":1,"la1":30.2991,"la2":30.254,"lo1":-89.0895,"lo2":-89.0444,"dy":0.0017,"dx":0.0017,"nx":28,"ny":28,"refTime":"2024-04-24T09:00:00:Z","depth":0,"parameterNumber":3,"parameterNumberName":"V-component_of_WINDS"},"data":[0,0,0,0,0,0,0,0,0,0,0,0,0,0,0,0,0,0,0,0,0,0,0,0,0,0,0,0,0,0,0,0,0,0,0,0,0,0,0,0,0,0,0,0,0,0,0,0,0,0,0,0,0,0,0,0,0,0,2.9142,2.9142,0,2.9119,2.9119,2.9118,2.905,2.9048,2.9047,2.9045,2.9022,2.9023,2.9024,0,0,0,0,0,0,0,0,0,0,0,0,0,2.9128,2.9129,2.9142,2.9142,2.9142,2.9119,2.9119,2.9118,2.905,2.9048,2.9046,2.9045,2.9022,2.9023,2.9024,0,0,0,0,0,0,0,0,0,0,0,0,0,2.9122,2.9129,2.9142,2.9105,2.9101,2.9119,2.9119,2.9118,2.905,2.9048,2.9046,2.9044,2.9022,2.9023,2.9024,2.9076,0,0,2.9028,2.9028,0,0,0,0,0,0,0,0,2.9123,2.9123,2.9111,2.9107,2.9103,2.9085,2.9105,2.9104,2.9051,2.907,2.9045,2.9043,2.9045,2.9044,2.9045,2.9075,2.9074,2.9028,2.9028,2.9029,2.9029,0,0,0,0,0,0,0,2.9123,2.9124,2.9133,2.9111,2.9106,2.9089,2.9086,2.9104,2.907,2.9068,2.9063,2.9061,2.9043,2.9044,2.9044,2.9074,2.9028,2.9029,2.9029,2.903,2.9145,2.9147,0,0,0,0,0,0,2.9129,2.9124,2.9134,2.9132,2.9108,2.9091,2.9088,2.9093,2.907,2.9064,2.9063,2.9058,2.9043,2.9042,2.9043,2.9101,2.9029,2.903,2.9031,2.9142,2.9145,2.9148,0,0,0,0,0,0,2.9129,2.913,2.9135,2.9127,2.9126,2.9094,2.9101,2.9094,2.9095,2.9066,2.906,2.907,2.9041,2.9041,2.9068,2.9099,2.9031,2.9032,2.914,2.9143,2.9147,2.922,0,0,0,0,0,0,2.9129,2.9131,2.915,2.9128,2.9127,2.9161,2.9103,2.9095,2.9097,2.909,2.9071,2.9066,2.9039,2.9067,2.9069,2.91,2.9033,2.9137,2.9141,2.9145,2.9214,2.9225,2.9235,0,0,0,0,0,2.9129,2.9173,2.9152,2.9153,2.9151,2.9163,2.9162,2.913,2.91,2.9119,2.91,2.9067,2.9096,2.907,2.9072,2.9104,2.9135,2.914,2.9145,2.921,2.9223,2.9235,0,0,0,0,0,0,2.92,2.9169,2.9146,2.9184,2.9176,2.9151,2.9175,2.9145,2.9147,2.914,2.9101,2.9097,2.913,2.9119,2.9091,2.9153,2.911,2.9116,2.9158,2.917,2.918,2.9182,2.9033,0,0,0,0,0,2.922,2.9233,2.9205,2.9241,2.9238,2.9207,2.9211,2.9187,2.9178,2.9175,2.9158,2.9151,2.9158,2.9164,2.9169,2.9213,2.9207,2.9235,2.9246,2.9254,2.926,2.9281,2.9293,2.9165,2.9165,2.9165,0,0,2.9262,2.9247,2.9257,2.9255,2.9246,2.926,2.9205,2.9222,2.9231,2.9177,2.9202,2.9189,2.9178,2.9214,2.9229,2.9206,2.9294,2.9261,2.9268,2.9269,2.9288,2.93,2.9311,2.9169,2.9168,2.9168,0,0,2.9345,2.9335,2.9363,2.9356,2.9343,2.9322,2.9329,2.9308,2.9298,2.9321,2.9281,2.9291,2.9305,2.9299,2.9297,2.9377,2.9346,2.938,2.9433,2.9454,2.9464,2.9473,2.9501,2.9511,2.9386,2.9386,2.9386,0,2.9399,2.9417,2.9382,2.9401,2.9401,2.9352,2.938,2.9375,2.9365,2.9366,2.9341,2.9356,2.9346,2.9378,2.9398,2.9399,2.9405,2.9382,2.9466,2.9474,2.9482,2.9508,2.9518,2.939,2.9389,2.9389,2.9389,0,2.9483,2.9497,2.9521,2.9512,2.9515,2.9539,2.9507,2.9514,2.9489,2.9471,2.9495,2.948,2.9481,2.9487,2.9464,2.9517,2.9503,2.9473,2.9429,2.9499,2.9522,2.9532,2.9396,2.9394,2.9393,2.9392,0,0,2.9611,2.9581,2.9591,2.9586,2.9568,2.9578,2.9599,2.9599,2.9606,2.9601,2.9617,2.9629,2.9601,2.9599,2.9574,2.9593,2.9656,2.956,2.9559,2.9578,2.9712,2.9735,2.9747,2.9635,2.9637,2.9639,2.9713,0,2.9689,2.9723,2.9691,2.9731,2.9743,2.9696,2.9715,2.9706,2.9689,2.9696,2.9678,2.9687,2.9649,2.9647,2.9664,2.9645,2.9683,2.9639,2.965,2.9651,2.9654,2.9759,2.9783,2.9854,2.9722,2.9724,2.9725,0,2.9784,2.9782,2.9824,2.9802,2.9806,2.9823,2.982,2.9828,2.9817,2.9803,2.9801,2.9771,2.979,2.9747,2.9772,2.9744,2.9746,2.9738,2.974,2.9739,2.9692,2.9761,2.9876,2.9887,2.9739,2.9738,2.9737,0,2.9872,2.988,2.9905,2.9902,2.9878,2.9891,2.9882,2.9868,2.987,2.9868,2.9869,2.9869,2.9869,2.987,2.9841,2.9813,2.987,2.9825,2.9859,2.986,2.9872,2.9872,2.9989,2.9876,2.9875,2.9875,2.9875,0,2.9961,2.9988,2.9944,2.996,2.9988,2.9952,2.9981,2.9967,2.9955,2.9967,2.9927,2.9939,2.99,2.9908,2.9885,2.9909,2.991,2.9899,2.9892,2.9902,2.9904,2.9903,2.9897,2.9878,2.9877,2.9877,2.9876,0,3.0064,3.0036,3.006,3.0035,3.0029,3.0052,3.003,3.0043,3.0024,3.0039,3.0041,3.001,3.0017,2.9988,2.9991,2.9975,3.0011,2.9996,3.0014,3.001,3.0045,3.0042,3.0165,3.0179,3.0058,3.0059,3.006,0,3.0123,3.0143,3.0119,3.0124,3.0116,3.0125,3.0126,3.0091,3.0094,3.0082,3.0097,3.0101,3.0102,3.0115,3.0093,3.0095,3.008,3.0123,3.008,3.0089,3.008,3.0079,3.008,3.0132,3.0133,3.0135,3.0136,0,3.023,3.0215,3.0218,3.0217,3.0219,3.0217,3.0211,3.0218,3.0179,3.0185,3.0191,3.0192,3.0194,3.0198,3.0195,3.0185,3.0154,3.0149,3.0157,3.0167,3.0176,3.0171,3.0038,3.0147,3.0146,3.0145,3.0144,3.0144,3.0312,3.0327,3.0312,3.0317,3.0309,3.0305,3.0316,3.0297,3.0302,3.03,3.0279,3.0289,3.0277,3.0269,3.0262,3.027,3.025,3.0261,3.0264,3.0267,3.0273,3.0176,3.027,3.0269,3.0269,3.0269,3.0268,0,3.0416,3.0404,3.0409,3.0402,3.0406,3.0376,3.0368,3.0374,3.0383,3.0374,3.0376,3.0383,3.0386,3.0364,3.0365,3.0375,3.0361,3.0377,3.0375,3.0373,3.0292,3.0284,3.0388,3.0388,3.0388,3.0388,3.0388,3.0388,3.0471,3.0494,3.0477,3.0495,3.0483,3.0492,3.049,3.0486,3.0478,3.0488,3.049,3.0476,3.0461,3.046,3.0462,3.0456,3.0458,3.0478,3.0467,3.0391,3.0379,3.0368,3.0361,3.0479,3.0479,3.0547,3.0548,3.0548]}]]